Hourly Weather Dzialy

Today, 6 May, Thursday

Time Temperature Precipitation Wind Pressure Humidity
00:00 +4°C° 0 mm 7 mps 742 mmHg 80%
01:00 +2°C° 0 mm 8 mps 743 mmHg 82%
02:00 +2°C° 0 mm 8 mps 743 mmHg 80%
03:00 +2°C° 0 mm 8 mps 743 mmHg 79%
04:00 +1°C° 0 mm 8 mps 744 mmHg 78%
05:00 +2°C° 0 mm 8 mps 744 mmHg 76%
06:00 +4°C° 0 mm 8 mps 745 mmHg 74%
07:00 +4°C° 0 mm 8 mps 745 mmHg 72%
08:00 +5°C° 0 mm 8 mps 745 mmHg 65%
09:00 +6°C° 0 mm 9 mps 745 mmHg 57%
10:00 +7°C° 0 mm 9 mps 745 mmHg 49%
11:00 +8°C° 0 mm 9 mps 745 mmHg 47%
12:00 +10°C° 0 mm 8 mps 746 mmHg 44%
13:00 +11°C° 0 mm 8 mps 746 mmHg 41%
14:00 +10°C° 0.1 mm 7 mps 745 mmHg 48%
15:00 +10°C° 0.1 mm 7 mps 745 mmHg 55%
16:00 +10°C° 0.1 mm 6 mps 745 mmHg 61%
17:00 +8°C° 0.1 mm 5 mps 745 mmHg 67%
18:00 +7°C° 0.1 mm 4 mps 745 mmHg 72%
19:00 +7°C° 0.1 mm 3 mps 745 mmHg 78%
20:00 +5°C° 0 mm 3 mps 745 mmHg 82%
21:00 +4°C° 0 mm 3 mps 745 mmHg 85%
22:00 +5°C° 0 mm 2 mps 745 mmHg 89%
23:00 +5°C° 0 mm 2 mps 745 mmHg 88%

Tomorrow, 7 May, Friday

Time Temperature Precipitation Wind Pressure Humidity
00:00 +5°C° 0 mm 2 mps 745 mmHg 88%
01:00 +6°C° 0 mm 1 mps 745 mmHg 88%
02:00 +5°C° 0.1 mm 2 mps 744 mmHg 89%
03:00 +5°C° 0.1 mm 2 mps 744 mmHg 90%
04:00 +6°C° 0.1 mm 2 mps 743 mmHg 91%
05:00 +6°C° 0.7 mm 2 mps 743 mmHg 92%
06:00 +5°C° 0.7 mm 3 mps 743 mmHg 93%
07:00 +5°C° 0.7 mm 3 mps 742 mmHg 94%
08:00 +5°C° 0.9 mm 3 mps 742 mmHg 94%
09:00 +5°C° 0.9 mm 3 mps 742 mmHg 95%
10:00 +5°C° 0.9 mm 3 mps 741 mmHg 95%
11:00 +6°C° 0.1 mm 4 mps 741 mmHg 93%
12:00 +6°C° 0.1 mm 4 mps 742 mmHg 92%
13:00 +7°C° 0.1 mm 5 mps 742 mmHg 90%
14:00 +6°C° 0.1 mm 5 mps 742 mmHg 92%
15:00 +5°C° 0.1 mm 5 mps 743 mmHg 93%
16:00 +3°C° 0.1 mm 5 mps 744 mmHg 95%
17:00 +2°C° 0.7 mm 5 mps 745 mmHg 94%
18:00 +2°C° 0.7 mm 5 mps 745 mmHg 93%
19:00 +2°C° 0.7 mm 5 mps 746 mmHg 93%
20:00 +2°C° 0.1 mm 6 mps 747 mmHg 93%
21:00 +2°C° 0.1 mm 7 mps 747 mmHg 93%
22:00 +2°C° 0.1 mm 7 mps 748 mmHg 93%
23:00 +2°C° 0 mm 7 mps 748 mmHg 92%

Day after tomorrow, 8 May, Saturday

Time Temperature Precipitation Wind Pressure Humidity
00:00 +2°C° 0 mm 7 mps 749 mmHg 90%
01:00 +2°C° 0 mm 7 mps 749 mmHg 89%
02:00 +2°C° 0 mm 6 mps 750 mmHg 89%
03:00 +2°C° 0 mm 6 mps 750 mmHg 90%
04:00 +2°C° 0 mm 6 mps 750 mmHg 90%
05:00 +2°C° 0 mm 6 mps 751 mmHg 88%
06:00 +3°C° 0 mm 5 mps 752 mmHg 86%
07:00 +3°C° 0 mm 5 mps 752 mmHg 84%
08:00 +4°C° 0.1 mm 6 mps 752 mmHg 77%
09:00 +7°C° 0.1 mm 6 mps 753 mmHg 70%
10:00 +8°C° 0.1 mm 6 mps 753 mmHg 64%
11:00 +8°C° 0.1 mm 7 mps 753 mmHg 62%
12:00 +9°C° 0.1 mm 7 mps 753 mmHg 59%
13:00 +9°C° 0.1 mm 7 mps 753 mmHg 57%
14:00 +9°C° 0.2 mm 7 mps 753 mmHg 58%
15:00 +9°C° 0.2 mm 6 mps 753 mmHg 58%
16:00 +9°C° 0.2 mm 6 mps 753 mmHg 59%
17:00 +8°C° 0 mm 4 mps 753 mmHg 65%
18:00 +8°C° 0 mm 3 mps 754 mmHg 71%
19:00 +6°C° 0 mm 2 mps 754 mmHg 77%
20:00 +6°C° 0 mm 2 mps 754 mmHg 78%
21:00 +5°C° 0 mm 2 mps 754 mmHg 79%
22:00 +5°C° 0 mm 1 mps 755 mmHg 81%
23:00 +4°C° 0 mm 2 mps 755 mmHg 81%

9 May, Sunday

Time Temperature Precipitation Wind Pressure Humidity
00:00 +4°C° 0 mm 2 mps 755 mmHg 82%
01:00 +3°C° 0 mm 2 mps 755 mmHg 83%
02:00 +2°C° 0 mm 3 mps 755 mmHg 83%
03:00 +2°C° 0 mm 3 mps 755 mmHg 83%
04:00 +2°C° 0 mm 3 mps 755 mmHg 83%
05:00 +4°C° 0 mm 3 mps 755 mmHg 78%
06:00 +6°C° 0 mm 4 mps 755 mmHg 74%
07:00 +8°C° 0 mm 5 mps 754 mmHg 69%
08:00 +10°C° 0 mm 5 mps 754 mmHg 65%
09:00 +11°C° 0 mm 6 mps 754 mmHg 60%
10:00 +14°C° 0 mm 6 mps 754 mmHg 56%
11:00 +15°C° 0 mm 7 mps 753 mmHg 54%
12:00 +16°C° 0 mm 7 mps 753 mmHg 52%
13:00 +17°C° 0 mm 7 mps 753 mmHg 50%
14:00 +17°C° 0 mm 6 mps 753 mmHg 53%
15:00 +19°C° 0 mm 6 mps 752 mmHg 55%
16:00 +19°C° 0 mm 5 mps 752 mmHg 58%
17:00 +16°C° 0 mm 5 mps 752 mmHg 65%
18:00 +14°C° 0 mm 4 mps 752 mmHg 71%
19:00 +13°C° 0 mm 4 mps 752 mmHg 78%
20:00 +12°C° 0 mm 4 mps 752 mmHg 78%
21:00 +11°C° 0 mm 3 mps 752 mmHg 78%
22:00 +10°C° 0 mm 3 mps 752 mmHg 79%
23:00 +10°C° 0 mm 3 mps 752 mmHg 81%

10 May, Monday

Time Temperature Precipitation Wind Pressure Humidity
00:00 +9°C° 0 mm 3 mps 752 mmHg 84%
01:00 +7°C° 0 mm 4 mps 752 mmHg 86%
02:00 +7°C° 0 mm 4 mps 752 mmHg 86%
03:00 +7°C° 0 mm 4 mps 752 mmHg 85%
04:00 +6°C° 0 mm 4 mps 752 mmHg 85%
05:00 +8°C° 0 mm 4 mps 752 mmHg 81%
06:00 +10°C° 0 mm 4 mps 752 mmHg 76%
07:00 +12°C° 0 mm 5 mps 752 mmHg 72%
08:00 +14°C° 0 mm 5 mps 752 mmHg 67%
09:00 +15°C° 0 mm 5 mps 751 mmHg 63%
10:00 +17°C° 0 mm 5 mps 751 mmHg 59%
11:00 +19°C° 0 mm 5 mps 751 mmHg 57%
12:00 +21°C° 0 mm 5 mps 751 mmHg 54%
13:00 +22°C° 0 mm 5 mps 751 mmHg 51%
14:00 +22°C° 0 mm 5 mps 751 mmHg 54%
15:00 +22°C° 0 mm 4 mps 750 mmHg 56%
16:00 +23°C° 0 mm 4 mps 750 mmHg 59%
17:00 +21°C° 0 mm 4 mps 750 mmHg 66%
18:00 +19°C° 0 mm 4 mps 750 mmHg 73%
19:00 +18°C° 0 mm 4 mps 750 mmHg 79%
20:00 +15°C° 0 mm 4 mps 750 mmHg 82%
21:00 +14°C° 0 mm 4 mps 750 mmHg 85%
22:00 +13°C° 0 mm 4 mps 750 mmHg 89%
23:00 +13°C° 0 mm 4 mps 749 mmHg 90%

11 May, Tuesday

Time Temperature Precipitation Wind Pressure Humidity
00:00 +12°C° 0 mm 4 mps 749 mmHg 91%
01:00 +12°C° 0 mm 4 mps 749 mmHg 93%
02:00 +12°C° 0 mm 4 mps 748 mmHg 92%
03:00 +10°C° 0 mm 5 mps 748 mmHg 92%
04:00 +10°C° 0 mm 5 mps 748 mmHg 91%
05:00 +11°C° 0 mm 6 mps 748 mmHg 87%
06:00 +14°C° 0 mm 6 mps 748 mmHg 83%
07:00 +15°C° 0 mm 6 mps 748 mmHg 78%
08:00 +17°C° 0 mm 7 mps 748 mmHg 73%
09:00 +20°C° 0 mm 7 mps 747 mmHg 68%
10:00 +22°C° 0 mm 7 mps 747 mmHg 63%
11:00 +23°C° 0 mm 7 mps 747 mmHg 60%
12:00 +24°C° 0 mm 7 mps 747 mmHg 57%
13:00 +27°C° 0 mm 6 mps 747 mmHg 54%
14:00 +27°C° 0 mm 6 mps 747 mmHg 56%
15:00 +27°C° 0 mm 6 mps 747 mmHg 59%
16:00 +27°C° 0 mm 6 mps 746 mmHg 62%
17:00 +25°C° 0 mm 5 mps 746 mmHg 67%
18:00 +22°C° 0 mm 5 mps 746 mmHg 72%
19:00 +21°C° 0 mm 4 mps 746 mmHg 78%
20:00 +20°C° 0 mm 5 mps 746 mmHg 77%
21:00 +19°C° 0 mm 5 mps 746 mmHg 77%
22:00 +17°C° 0 mm 6 mps 746 mmHg 77%
23:00 +16°C° 0 mm 6 mps 746 mmHg 77%
Show more

We Need Your Consent

Meteoprog and our Service Providers may store and access personal data such as cookies, device identifiers or other similar technologies on your device and process such data to personalise content and ads, as well as provide social media features and to analyse the traffic.

  • Store and/or access information on your device

    Cookies, device identifiers or other information can be stored or accessed on your device for the purposes indicated above.

  • Personalised ads and content, ad and content measurement, audience insights, and products development

    Ads and content can be personalised based on a profile. More data can be added to better personalise ads and content. Ad and content performance can be measured. Insights about the audience who saw the ads and content can be derived. Such data can be used to develop or improve user’s experience, systems and software.

By clicking ‘I Agree’ you will allow the use of indicated cookies, device identifiers, web beacons or other similar technologies. Your settings can be changed in the browser on your device.

For certain purposes, legitimate interests may be relied on, rather than consent. You can read more about this in our Privacy and Cookie Policy.